[[{"header":{"parameterUnit":"m.s-1","parameterCategory":1,"la1":30.2991,"la2":30.254,"lo1":-89.0895,"lo2":-89.0444,"dy":0.0017,"dx":0.0017,"nx":28,"ny":28,"refTime":"2025-09-02T21:00:00:Z","depth":0,"parameterNumber":2,"parameterNumberName":"U-component_of_WINDS"},"data":[0,0,0,0,0,0,0,0,0,0,0,0,0,0,0,0,0,0,0,0,0,0,0,0,0,0,0,0,0,0,0,0,0,0,0,0,0,0,0,0,0,0,0,0,0,0,0,0,0,0,0,0,0,0,0,0,0,0,-1.3134,-1.3133,0,-1.311,-1.311,-1.311,-1.3045,-1.3043,-1.3042,-1.3041,-1.3019,-1.3019,-1.302,0,0,0,0,0,0,0,0,0,0,0,0,0,-1.3123,-1.3124,-1.3134,-1.3133,-1.3133,-1.311,-1.311,-1.311,-1.3045,-1.3043,-1.3042,-1.304,-1.3018,-1.3019,-1.302,0,0,0,0,0,0,0,0,0,0,0,0,0,-1.3117,-1.3124,-1.3134,-1.3098,-1.3095,-1.3111,-1.311,-1.311,-1.3045,-1.3043,-1.3041,-1.3039,-1.3018,-1.3019,-1.302,-1.3069,0,0,-1.3024,-1.3024,0,0,0,0,0,0,0,0,-1.3117,-1.3117,-1.3104,-1.31,-1.3097,-1.3078,-1.3098,-1.3096,-1.3046,-1.3064,-1.3041,-1.3038,-1.304,-1.3039,-1.304,-1.3068,-1.3067,-1.3024,-1.3024,-1.3025,-1.3025,0,0,0,0,0,0,0,-1.3118,-1.3118,-1.3124,-1.3103,-1.3099,-1.3083,-1.308,-1.3098,-1.3064,-1.3062,-1.3058,-1.3056,-1.3038,-1.3039,-1.3039,-1.3067,-1.3024,-1.3025,-1.3025,-1.3026,-1.3135,-1.3137,0,0,0,0,0,0,-1.3123,-1.3119,-1.3125,-1.3124,-1.3102,-1.3085,-1.3082,-1.3086,-1.3064,-1.3059,-1.3057,-1.3053,-1.3038,-1.3038,-1.3038,-1.3094,-1.3025,-1.3026,-1.3026,-1.3133,-1.3135,-1.3138,0,0,0,0,0,0,-1.3123,-1.3124,-1.3126,-1.312,-1.3119,-1.3088,-1.3094,-1.3087,-1.3088,-1.306,-1.3054,-1.3064,-1.3036,-1.3036,-1.3062,-1.3092,-1.3026,-1.3027,-1.313,-1.3133,-1.3137,-1.3207,0,0,0,0,0,0,-1.3123,-1.3125,-1.3143,-1.3121,-1.3119,-1.3151,-1.3095,-1.3088,-1.309,-1.3083,-1.3065,-1.306,-1.3035,-1.3061,-1.3063,-1.3092,-1.3028,-1.3127,-1.3132,-1.3135,-1.3201,-1.3212,-1.3221,0,0,0,0,0,-1.3123,-1.3164,-1.3144,-1.3145,-1.3141,-1.3152,-1.3152,-1.3121,-1.3092,-1.311,-1.3093,-1.3061,-1.3088,-1.3064,-1.3066,-1.3096,-1.3125,-1.313,-1.3135,-1.3197,-1.321,-1.3221,0,0,0,0,0,0,-1.3191,-1.316,-1.3138,-1.3173,-1.3166,-1.3141,-1.3163,-1.3136,-1.3137,-1.3131,-1.3093,-1.309,-1.3121,-1.3111,-1.3084,-1.3143,-1.3101,-1.3107,-1.3148,-1.316,-1.3169,-1.3171,-1.3029,0,0,0,0,0,-1.321,-1.3221,-1.3194,-1.3227,-1.3225,-1.3195,-1.3198,-1.3175,-1.3167,-1.3163,-1.3147,-1.3141,-1.3147,-1.3153,-1.3158,-1.32,-1.3195,-1.3221,-1.3231,-1.3239,-1.3245,-1.3266,-1.3277,-1.3154,-1.3154,-1.3154,0,0,-1.325,-1.3234,-1.3243,-1.3241,-1.3232,-1.3245,-1.3193,-1.3208,-1.3217,-1.3166,-1.3189,-1.3177,-1.3167,-1.3201,-1.3215,-1.3194,-1.3278,-1.3246,-1.3252,-1.3253,-1.3272,-1.3284,-1.3294,-1.3158,-1.3157,-1.3157,0,0,-1.3328,-1.3317,-1.3344,-1.3336,-1.3324,-1.3304,-1.3311,-1.329,-1.328,-1.3303,-1.3264,-1.3275,-1.3288,-1.3282,-1.3281,-1.3357,-1.3327,-1.3359,-1.341,-1.3431,-1.3441,-1.3449,-1.3477,-1.3487,-1.3365,-1.3365,-1.3365,0,-1.3379,-1.3396,-1.3361,-1.3379,-1.3379,-1.3332,-1.3359,-1.3354,-1.3344,-1.3345,-1.3322,-1.3336,-1.3326,-1.3358,-1.3377,-1.3377,-1.3384,-1.3361,-1.3442,-1.345,-1.3458,-1.3483,-1.3494,-1.3369,-1.3369,-1.3368,-1.3368,0,-1.3459,-1.3471,-1.3494,-1.3485,-1.3488,-1.351,-1.348,-1.3486,-1.3463,-1.3446,-1.3469,-1.3455,-1.3456,-1.3462,-1.344,-1.3491,-1.3478,-1.3449,-1.3407,-1.3474,-1.3497,-1.3507,-1.3375,-1.3373,-1.3372,-1.3371,0,0,-1.358,-1.3551,-1.356,-1.3556,-1.3539,-1.3548,-1.3568,-1.3568,-1.3575,-1.357,-1.3586,-1.3598,-1.3571,-1.357,-1.3546,-1.3565,-1.3626,-1.3533,-1.3532,-1.3551,-1.3681,-1.3703,-1.3715,-1.3606,-1.3608,-1.3609,-1.3682,0,-1.3654,-1.3687,-1.3656,-1.3695,-1.3706,-1.3661,-1.3679,-1.3671,-1.3655,-1.3662,-1.3645,-1.3654,-1.3617,-1.3616,-1.3632,-1.3615,-1.3651,-1.3609,-1.3621,-1.3622,-1.3625,-1.3727,-1.3751,-1.382,-1.3691,-1.3692,-1.3693,0,-1.3745,-1.3743,-1.3783,-1.3763,-1.3766,-1.3783,-1.3781,-1.3788,-1.3778,-1.3765,-1.3764,-1.3735,-1.3753,-1.3712,-1.3738,-1.371,-1.3713,-1.3705,-1.3707,-1.3707,-1.3662,-1.373,-1.3842,-1.3852,-1.3707,-1.3706,-1.3705,0,-1.383,-1.3837,-1.3862,-1.3859,-1.3836,-1.3849,-1.384,-1.3828,-1.383,-1.3828,-1.3829,-1.383,-1.3831,-1.3832,-1.3805,-1.3777,-1.3834,-1.379,-1.3824,-1.3825,-1.3838,-1.3838,-1.3952,-1.384,-1.384,-1.384,-1.384,0,-1.3916,-1.3942,-1.3899,-1.3915,-1.3943,-1.3907,-1.3936,-1.3923,-1.3912,-1.3924,-1.3886,-1.3898,-1.386,-1.3869,-1.3848,-1.3872,-1.3873,-1.3863,-1.3857,-1.3867,-1.3868,-1.3868,-1.3863,-1.3843,-1.3842,-1.3841,-1.3841,0,-1.4015,-1.3988,-1.4012,-1.3988,-1.3982,-1.4004,-1.3984,-1.3997,-1.3978,-1.3994,-1.3996,-1.3967,-1.3975,-1.3947,-1.3951,-1.3936,-1.3973,-1.3958,-1.3976,-1.3972,-1.4007,-1.4004,-1.4126,-1.414,-1.4019,-1.402,-1.4021,0,-1.4072,-1.4091,-1.4069,-1.4074,-1.4067,-1.4076,-1.4077,-1.4043,-1.4047,-1.4036,-1.4051,-1.4055,-1.4057,-1.4072,-1.4052,-1.4054,-1.404,-1.4083,-1.4041,-1.4049,-1.4041,-1.4041,-1.4042,-1.4092,-1.4093,-1.4094,-1.4095,0,-1.4177,-1.4162,-1.4165,-1.4164,-1.4167,-1.4165,-1.416,-1.4167,-1.413,-1.4136,-1.4143,-1.4145,-1.4148,-1.4153,-1.4151,-1.4143,-1.4113,-1.4109,-1.4117,-1.4127,-1.4136,-1.4132,-1.4,-1.4106,-1.4105,-1.4104,-1.4104,-1.4103,-1.4256,-1.4271,-1.4258,-1.4263,-1.4255,-1.4252,-1.4263,-1.4245,-1.425,-1.425,-1.423,-1.4241,-1.423,-1.4224,-1.4218,-1.4227,-1.4207,-1.4219,-1.4222,-1.4225,-1.4232,-1.4134,-1.4227,-1.4226,-1.4226,-1.4226,-1.4225,0,-1.4359,-1.4348,-1.4353,-1.4347,-1.4351,-1.4322,-1.4315,-1.4321,-1.4331,-1.4323,-1.4325,-1.4334,-1.4338,-1.4318,-1.432,-1.4331,-1.4317,-1.4333,-1.4332,-1.433,-1.4249,-1.4242,-1.4343,-1.4343,-1.4343,-1.4343,-1.4343,-1.4343,-1.4413,-1.4436,-1.4419,-1.4438,-1.4427,-1.4437,-1.4436,-1.4432,-1.4425,-1.4436,-1.444,-1.4426,-1.4413,-1.4414,-1.4417,-1.4411,-1.4413,-1.4433,-1.4423,-1.4347,-1.4336,-1.4325,-1.4318,-1.4434,-1.4434,-1.4503,-1.4504,-1.4505]},{"header":{"parameterUnit":"m.s-1","parameterCategory":1,"la1":30.2991,"la2":30.254,"lo1":-89.0895,"lo2":-89.0444,"dy":0.0017,"dx":0.0017,"nx":28,"ny":28,"refTime":"2025-09-02T21:00:00:Z","depth":0,"parameterNumber":3,"parameterNumberName":"V-component_of_WINDS"},"data":[0,0,0,0,0,0,0,0,0,0,0,0,0,0,0,0,0,0,0,0,0,0,0,0,0,0,0,0,0,0,0,0,0,0,0,0,0,0,0,0,0,0,0,0,0,0,0,0,0,0,0,0,0,0,0,0,0,0,2.0631,2.0631,0,2.0611,2.0611,2.0611,2.0573,2.0572,2.0572,2.0571,2.055,2.0551,2.0551,0,0,0,0,0,0,0,0,0,0,0,0,0,2.0636,2.0636,2.0631,2.0631,2.0631,2.0611,2.0611,2.0611,2.0573,2.0572,2.0572,2.0571,2.055,2.0551,2.0551,0,0,0,0,0,0,0,0,0,0,0,0,0,2.0627,2.0636,2.0631,2.061,2.0607,2.0611,2.0611,2.0611,2.0574,2.0572,2.0571,2.057,2.055,2.0551,2.0551,2.0574,0,0,2.0551,2.0552,0,0,0,0,0,0,0,0,2.0627,2.0626,2.0613,2.0611,2.0609,2.0594,2.0605,2.0599,2.0574,2.0586,2.0571,2.057,2.0566,2.0565,2.0563,2.0573,2.0572,2.0551,2.0552,2.0552,2.0552,0,0,0,0,0,0,0,2.0628,2.0627,2.0623,2.0613,2.061,2.0601,2.0598,2.0604,2.0582,2.0585,2.0582,2.0581,2.0564,2.0563,2.0563,2.0572,2.0551,2.0552,2.0552,2.0552,2.0598,2.0599,0,0,0,0,0,0,2.0632,2.0628,2.0624,2.0623,2.0615,2.0601,2.0599,2.06,2.0582,2.0579,2.0582,2.0579,2.0563,2.0562,2.0562,2.0586,2.0552,2.0552,2.0552,2.0597,2.0598,2.06,0,0,0,0,0,0,2.0632,2.0632,2.0625,2.0624,2.0623,2.0603,2.0604,2.06,2.0599,2.058,2.0576,2.0584,2.0562,2.0561,2.0571,2.0585,2.0552,2.0552,2.0596,2.0598,2.0599,2.0637,0,0,0,0,0,0,2.0632,2.0632,2.0641,2.0625,2.0623,2.0635,2.0605,2.06,2.0599,2.0595,2.0581,2.0578,2.0562,2.0571,2.0571,2.0585,2.0552,2.0594,2.0597,2.0599,2.0634,2.064,2.0644,0,0,0,0,0,2.0632,2.0653,2.0641,2.0641,2.0634,2.0636,2.0634,2.0616,2.06,2.0609,2.0596,2.0578,2.0584,2.0572,2.0572,2.0586,2.0593,2.0596,2.0598,2.0632,2.0639,2.0644,0,0,0,0,0,0,2.0671,2.065,2.0638,2.0653,2.0646,2.0629,2.0639,2.0623,2.0621,2.0617,2.0594,2.0591,2.0603,2.0596,2.0583,2.0607,2.0586,2.0588,2.0611,2.0617,2.0622,2.0623,2.0552,0,0,0,0,0,2.0681,2.0684,2.0666,2.0682,2.0679,2.066,2.066,2.0646,2.0638,2.0635,2.0623,2.0616,2.0616,2.0616,2.0616,2.0633,2.0629,2.0643,2.0648,2.0652,2.0654,2.0661,2.0667,2.0608,2.0608,2.0608,0,0,2.0702,2.0691,2.0695,2.0689,2.0682,2.0686,2.0658,2.0663,2.0665,2.0636,2.0643,2.0635,2.0625,2.0639,2.0644,2.0633,2.067,2.0655,2.0659,2.0659,2.0665,2.067,2.0675,2.061,2.0609,2.0609,0,0,2.0742,2.0735,2.0746,2.074,2.073,2.0717,2.072,2.0705,2.0698,2.0705,2.0683,2.0685,2.0686,2.068,2.0676,2.0713,2.0696,2.0714,2.0739,2.0747,2.0751,2.0755,2.0767,2.0772,2.0716,2.0717,2.0717,0,2.0769,2.0774,2.0754,2.076,2.0758,2.0732,2.0742,2.0737,2.0727,2.0726,2.0714,2.0714,2.0705,2.0716,2.0725,2.0724,2.0725,2.0715,2.0753,2.0756,2.076,2.077,2.0775,2.0719,2.0718,2.0718,2.0718,0,2.0807,2.0811,2.0821,2.0812,2.0811,2.082,2.0801,2.0802,2.0788,2.0776,2.0784,2.0773,2.0769,2.0771,2.0757,2.0779,2.0772,2.0757,2.0735,2.0768,2.0777,2.0781,2.0722,2.0721,2.072,2.072,0,0,2.087,2.0849,2.0853,2.0848,2.0835,2.0837,2.0845,2.084,2.0841,2.0835,2.084,2.0841,2.0826,2.0823,2.0809,2.0815,2.0843,2.0799,2.0798,2.0806,2.0865,2.0875,2.088,2.0832,2.0833,2.0833,2.0865,0,2.0906,2.0917,2.0899,2.0914,2.0916,2.0891,2.0897,2.0889,2.0878,2.0878,2.0867,2.0867,2.0848,2.0846,2.0851,2.0839,2.0854,2.0836,2.0835,2.0835,2.0836,2.0886,2.0897,2.0927,2.0869,2.0869,2.087,0,2.0949,2.0944,2.0959,2.0944,2.0944,2.095,2.0944,2.0945,2.0936,2.0927,2.0923,2.0906,2.0911,2.0891,2.0897,2.0885,2.0884,2.0877,2.0878,2.0876,2.0853,2.0883,2.0936,2.094,2.0876,2.0875,2.0875,0,2.0991,2.0989,2.0997,2.0994,2.0977,2.0981,2.0975,2.0964,2.0962,2.0957,2.0955,2.0951,2.0949,2.0946,2.0928,2.0915,2.0935,2.0914,2.0927,2.0928,2.0931,2.0931,2.0984,2.0933,2.0933,2.0933,2.0933,0,2.1031,2.1041,2.1016,2.1021,2.1031,2.101,2.102,2.1011,2.1002,2.1004,2.0982,2.0985,2.0962,2.0962,2.0948,2.0954,2.0953,2.0946,2.0942,2.0947,2.0948,2.0944,2.0941,2.0935,2.0934,2.0934,2.0934,0,2.1079,2.1063,2.107,2.1053,2.1049,2.1057,2.1043,2.1046,2.1034,2.1037,2.1037,2.1018,2.1016,2.0998,2.0993,2.0984,2.0995,2.0988,2.0998,2.0995,2.1009,2.1007,2.1059,2.1064,2.1013,2.1013,2.1014,0,2.1105,2.1112,2.1096,2.1096,2.109,2.1091,2.1089,2.1069,2.1067,2.1057,2.1061,2.1058,2.1054,2.1053,2.1038,2.1034,2.1025,2.1044,2.1024,2.1029,2.1023,2.1022,2.1022,2.1047,2.1048,2.1049,2.1049,0,2.1153,2.1145,2.1143,2.1138,2.1136,2.1131,2.1125,2.1126,2.1104,2.1103,2.1102,2.1099,2.1093,2.109,2.1082,2.1075,2.1058,2.1056,2.1058,2.1063,2.1067,2.1063,2.1007,2.1054,2.1054,2.1053,2.1053,2.1053,2.119,2.1194,2.1183,2.1181,2.1175,2.1169,2.1171,2.116,2.1158,2.1151,2.114,2.114,2.1129,2.1117,2.1111,2.111,2.11,2.1104,2.1105,2.1106,2.1108,2.1069,2.1109,2.1109,2.1108,2.1108,2.1108,0,2.1235,2.1226,2.1225,2.1217,2.1215,2.1201,2.1193,2.1192,2.1192,2.1184,2.118,2.1178,2.1174,2.1159,2.1154,2.1156,2.1148,2.1155,2.1153,2.1152,2.1118,2.1115,2.1161,2.1161,2.1161,2.1161,2.1161,2.1161,2.1258,2.1264,2.1254,2.1256,2.1248,2.1247,2.1244,2.1238,2.1232,2.1229,2.1226,2.1217,2.1205,2.1199,2.1195,2.119,2.1189,2.1198,2.1191,2.1159,2.1154,2.1149,2.1147,2.1198,2.1198,2.1224,2.1224,2.1225]}]]